Overview Statistics Trail Chart Weather Telemetry Raw packets
 

This is the latest recevied weather packets stored in our database for station/object N9DMT-13. If no packets are shown the sender has not sent any weather packets the latest 10 day(s).

<< 9 10 11 12 13 14 15 >>
Time Temp. Humidity Pressure Rain* Wind** Luminosity Snow
1777802034 10° C 59% 978.5 hPa 0 mm - - -
1777801733 10° C 59% 978.6 hPa 0 mm - - -
1777801432 9.44° C 61% 978.7 hPa 0 mm - - -
1777801132 8.33° C 65% 978.7 hPa 0 mm - - -
1777800831 7.78° C 72% 978.5 hPa 0 mm - - -
1777800530 7.22° C 73% 978.6 hPa 0 mm - - -
1777800230 6.67° C 73% 978.4 hPa 0 mm - - -
1777799928 6.67° C 77% 978.4 hPa 0 mm - - -
1777799628 6.11° C 77% 978.6 hPa 0 mm - - -
1777799327 6.11° C 82% 978.7 hPa 0 mm - - -
1777799026 5.56° C 82% 978.9 hPa 0 mm - - -
1777798725 5.56° C 82% 979 hPa 0 mm - - -
1777798424 5.56° C 84% 978.9 hPa 0 mm - - -
1777798123 5.56° C 82% 979 hPa 0 mm - - -
1777797823 5° C 84% 979 hPa 0 mm - - -
1777797522 5° C 84% 979.1 hPa 0 mm - - -
1777797221 5° C 85% 979.2 hPa 0 mm - - -
1777796920 5° C 85% 979.3 hPa 0 mm - - -
1777796620 5° C 85% 979 hPa 0 mm - - -
1777796319 5° C 85% 979.2 hPa 0 mm - - -
1777796019 4.44° C 84% 979.2 hPa 0 mm - - -
1777795718 4.44° C 87% 979.1 hPa 0 mm - - -
1777795417 4.44° C 87% 979.2 hPa 0 mm - - -
1777795116 4.44° C 87% 979.1 hPa 0 mm - - -
1777794816 4.44° C 87% 979.2 hPa 0 mm - - -

* Rain latest hour (hover to see other rain measurements)
** Current wind speed in m/s (hover to see current wind gust speed)